Dyersburg, TN

9:00 PM CST on December 14, 2019 (GMT -0600)
Dyersburg Municipal

Weather History for KDYR - October, 2019

Change the Weather History Date:

Saturday, October 12, 2019

  Actual Average Record
Temperature  
Mean Temperature 48 °F -  
Max Temperature 62 °F 69 °F 87 °F (2015)
Min Temperature 37 °F 49 °F 39 °F (1996)
Degree Days  
Heating Degree Days 16    
Moisture  
Dew Point 37 °F    
Average Humidity 72    
Maximum Humidity 100    
Minimum Humidity 35    
Precipitation  
Precipitation 0.00 in - - ()
Sea Level Pressure  
Sea Level Pressure 30.22 in    
Wind  
Wind Speed 2 mph ()    
Max Wind Speed 8 mph    
Max Gust Speed -    
Visibility 9.8 miles    
Events      
Averages and records for this station are not official NWS values.
T = Trace of Precipitation, MM = Missing Value Source: Averaged Metar Reports

Daily Weather History Graph

Daily Weather History Graph

Search for Another Location

Airport or City:

Astronomy

Oct. 12, 2019 Rise Set
Actual Time 7:01 AM CDT 6:26 PM CDT
Civil Twilight 6:35 AM CDT 6:51 PM CDT
Nautical Twilight 6:06 AM CDT 7:21 PM CDT
Astronomical Twilight 5:36 AM CDT 7:51 PM CDT
Moon 6:18 PM CDT (10/12) 5:43 AM CDT (10/12)
Length of Visible Light 12h 15m
Length of Day
11h 24m
Waxing Gibbous, 99% of the Moon is Illuminated
Oct 12
Waxing Gibbous
Oct 13
Full
Oct 21
Last Quarter
Oct 27
New
Nov 4
First Quarter

Hourly Weather History & Observations

Time (CDT) Temp. Windchill Dew Point Humidity Pressure Visibility Wind Dir Wind Speed Gust Speed Precip Events Conditions
12:56 AM 45.0 °F 41.2 °F 39.0 °F 80% 30.26 in 10.0 mi North 6.9 mph - N/A   Clear
1:56 AM 43.0 °F 40.3 °F 37.9 °F 82% 30.26 in 10.0 mi North 4.6 mph - N/A   Clear
2:56 AM 39.9 °F - 37.9 °F 93% 30.25 in 10.0 mi Calm Calm - N/A   Clear
3:56 AM 41.0 °F - 37.9 °F 89% 30.25 in 10.0 mi Calm Calm - N/A   Clear
4:56 AM 37.9 °F 35.5 °F 36.0 °F 93% 30.26 in 10.0 mi ESE 3.5 mph - N/A   Clear
5:56 AM 39.0 °F - 37.9 °F 96% 30.28 in 10.0 mi Calm Calm - N/A   Clear
6:56 AM 37.0 °F - 37.0 °F 100% 30.29 in 10.0 mi Calm Calm - N/A   Clear
7:56 AM 41.0 °F - 39.0 °F 93% 30.29 in 10.0 mi Calm Calm - N/A   Clear
8:56 AM 46.9 °F - 41.0 °F 80% 30.28 in 10.0 mi ENE 4.6 mph - N/A   Clear
9:56 AM 50.0 °F - 37.9 °F 63% 30.29 in 10.0 mi Variable 3.5 mph - N/A   Clear
10:56 AM 53.1 °F - 36.0 °F 52% 30.29 in 10.0 mi North 8.1 mph - N/A   Clear
11:56 AM 54.0 °F - 34.0 °F 47% 30.28 in 10.0 mi North 3.5 mph - N/A   Clear
12:56 PM 57.0 °F - 35.1 °F 44% 30.25 in 10.0 mi NNE 3.5 mph - N/A   Clear
1:56 PM 59.0 °F - 33.1 °F 38% 30.21 in 10.0 mi Calm Calm - N/A   Clear
2:56 PM 60.1 °F - 33.1 °F 36% 30.18 in 10.0 mi Calm Calm - N/A   Clear
3:56 PM 60.1 °F - 32.0 °F 35% 30.16 in 10.0 mi NNW 3.5 mph - N/A   Clear
5:56 PM 59.0 °F - 33.1 °F 38% 30.14 in 10.0 mi Calm Calm - N/A   Clear
6:56 PM 51.1 °F - 37.9 °F 61% 30.13 in 10.0 mi Calm Calm - N/A   Clear
7:56 PM 46.9 °F - 41.0 °F 80% 30.14 in 10.0 mi Calm Calm - N/A   Clear
8:56 PM 45.0 °F - 41.0 °F 86% 30.14 in 10.0 mi Calm Calm - N/A   Clear
9:56 PM 43.0 °F - 41.0 °F 93% 30.13 in 10.0 mi Calm Calm - N/A   Clear
10:56 PM 43.0 °F - 39.9 °F 89% 30.11 in 6.0 mi Calm Calm - N/A   Clear
11:56 PM 41.0 °F - 39.9 °F 96% 30.11 in 10.0 mi Calm Calm - N/A   Clear